Regional Weather Roundup
Issued by NWS

Home | Current Version | Previous Version | Graphics & Text | Print | Product List | Glossary On
Versions: 1 2 3 4 5 6 7 8 9 10 11 12 13 14 15 16 17 18 19 20 21 22 23 24 25 26 27 28 29 30 31 32 33 34 35 36 37 38 39 40 41 42 43 44 45 46 47 48 49 50
000
ASUS43 KLSX 201807
RWRMO

WEATHER SUMMARY FOR MISSOURI
NATIONAL WEATHER SERVICE SPRINGFIELD MO
100 PM CDT SUN APR 20 2014

NOTE: "FAIR" INDICATES FEW OR NO CLOUDS BELOW 12,000 FEET WITH NO
       SIGNIFICANT WEATHER AND/OR OBSTRUCTIONS TO VISIBILITY.
       CURRENT SKY AND/OR WEATHER CONDITIONS ARE NOT AVAILABLE FOR
       CHILLICOTHE AND FARMINGTON.

MOZ001>031-035>038-043-044-053-054-201900-
...NORTHERN AND WESTERN MISSOURI...

CITY           SKY/WX    TMP DP  RH WIND       PRES   REMARKS
KANSAS CTY INT PTSUNNY   77  53  43 S15G23    30.06F
6HR MIN TEMP:  55; 6HR MAX TEMP:  77;

KANSAS C DTWN  PTSUNNY   78  52  40 S14G25    30.06F
6HR MIN TEMP:  60; 6HR MAX TEMP:  78;

LEE`S SUMMIT   PTSUNNY   74  51  44 S17G23    30.09F
6HR MIN TEMP:  58; 6HR MAX TEMP:  75;

ST JOSEPH      MOSUNNY   80  53  39 S17       30.03F
6HR MIN TEMP:  55; 6HR MAX TEMP:  80;

CHILLICOTHE      N/A     77  50  38 S14G21    30.07F
6HR MIN TEMP:  55; 6HR MAX TEMP:  78;

KIRKSVILLE     SUNNY     79  49  34 S15G23    30.10F
6HR MIN TEMP:  49; 6HR MAX TEMP:  79;


$$
MOZ066>068-077>081-088>096-101>105-201900-
...SOUTHWEST MISSOURI...

CITY           SKY/WX    TMP DP  RH WIND       PRES   REMARKS
SPRINGFIELD    MOSUNNY   74  50  42 S14       30.14F
6HR MIN TEMP:  55; 6HR MAX TEMP:  76;

JOPLIN         PTSUNNY   74  50  42 SW10      30.13S
6HR MIN TEMP:  56; 6HR MAX TEMP:  77;


$$
MOZ032>034-039>042-045>050-055>058-069>072-201900-
...CENTRAL MISSOURI...

CITY           SKY/WX    TMP DP  RH WIND       PRES   REMARKS
COLUMBIA       MOSUNNY   77  51  40 SW13      30.12F
6HR MIN TEMP:  55; 6HR MAX TEMP:  78;

JEFFERSON CITY MOSUNNY   77  49  37 VRB6      30.11F
6HR MIN TEMP:  53; 6HR MAX TEMP:  77;

ROLLA          SUNNY     75  48  38 SW9       30.13F
6HR MIN TEMP:  52; 6HR MAX TEMP:  75;

SEDALIA        SUNNY     78  52  40 S13       30.11F
6HR MIN TEMP:  56; 6HR MAX TEMP:  78;

WHITEMAN AFB   MOSUNNY   77  49  37 SW20G26   30.09F
OSAGE BEACH    MOSUNNY   75  46  35 SW3       30.13F

$$
MOZ051-052-059>065-201900-
...EAST CENTRAL MISSOURI...

CITY           SKY/WX    TMP DP  RH WIND       PRES   REMARKS
ST LOUIS INTL  PTSUNNY   78  40  25 VRB3      30.15F
6HR MIN TEMP:  52; 6HR MAX TEMP:  79;

SPIRIT OF STL  SUNNY     78  41  26 S8        30.13F
6HR MIN TEMP:  45; 6HR MAX TEMP:  79;

ST CHARLES     SUNNY     77  41  27 VRB6G17   30.13F
6HR MIN TEMP:  48; 6HR MAX TEMP:  78;


$$
MOZ072>076-082>087-097>100-106>115-201900-
...SOUTH CENTRAL AND SOUTHEAST MISSOURI...

CITY           SKY/WX    TMP DP  RH WIND       PRES   REMARKS
CAPE GIRARDEAU MOSUNNY   76  47  35 VRB6      30.17F
6HR MIN TEMP:  46; 6HR MAX TEMP:  77;

FARMINGTON     SUNNY     77  41  27 S8        30.19F
6HR MIN TEMP:  45; 6HR MAX TEMP:  77;

POPLAR BLUFF   MOSUNNY   76  43  30 SW5       30.16F
6HR MIN TEMP:  50; 6HR MAX TEMP:  77;

WEST PLAINS    MOSUNNY   74  47  38 MISG      30.17F
6HR MIN TEMP:  50; 6HR MAX TEMP:  74;


$$



USA.gov is the U.S. government's official web portal to all federal, state and local government web resources and services.